, AK

(GMT )
Valdez Airport

Weather History for PAVD - November, 2013

Change the Weather History Date:

Tuesday, November 26, 2013

  Actual Average Record
Temperature  
Mean Temperature 32 °F -  
Max Temperature 33 °F 31 °F 44 °F (1980)
Min Temperature 30 °F 22 °F 0 °F (2006)
Degree Days  
Heating Degree Days 34    
Moisture  
Dew Point 27 °F    
Average Humidity 86    
Maximum Humidity 100    
Minimum Humidity 60    
Precipitation  
Precipitation 0.11 in - - ()
Sea Level Pressure  
Sea Level Pressure 29.88 in    
Wind  
Wind Speed 2 mph (ENE)    
Max Wind Speed 7 mph    
Max Gust Speed -    
Visibility 7 miles    
Events Snow    
Averages and records for this station are not official NWS values.
T = Trace of Precipitation, MM = Missing Value Source: NWS Daily Summary

Daily Weather History Graph

Daily Weather History Graph

Search for Another Location

Airport or City:

Trip Planner

Search our weather history database for the weather conditions in past years. The results will help you decide how hot, cold, wet, or windy it might be!

Date:

Astronomy

Nov. 26, 2013 Rise Set
Actual Time 9:19 AM AKST 3:44 PM AKST
Civil Twilight 8:23 AM AKST 4:40 PM AKST
Nautical Twilight 7:27 AM AKST 5:37 PM AKST
Astronomical Twilight 6:35 AM AKST 6:29 PM AKST
Moon 12:41 AM AKST (11/26) 1:37 PM AKST (11/26)
Length of Visible Light 8h 17m
Length of Day
6h 25m
Last Quarter, 40% of the Moon is Illuminated
Nov 26
Last Quarter
Dec 2
New
Dec 9
First Quarter
Dec 17
Full
Dec 25
Last Quarter

Hourly Weather History & Observations

Time (AKST) Temp. Windchill Dew Point Humidity Pressure Visibility Wind Dir Wind Speed Gust Speed Precip Events Conditions
12:16 AM 32.0 °F 28.7 °F 26.6 °F 80% 29.78 in 10.0 mi South 3.5 mph - N/A   Overcast
12:36 AM 30.2 °F 25.4 °F 26.6 °F 86% 29.78 in 10.0 mi East 4.6 mph - N/A   Overcast
12:56 AM 30.2 °F 24.3 °F 28.4 °F 93% 29.79 in 10.0 mi NE 5.8 mph - N/A   Overcast
1:16 AM 30.2 °F - 26.6 °F 86% 29.80 in 10.0 mi Calm Calm - N/A   Overcast
1:36 AM 30.2 °F - 26.6 °F 86% 29.80 in 10.0 mi Calm Calm - N/A   Overcast
1:56 AM 30.2 °F 23.4 °F 26.6 °F 86% 29.80 in 10.0 mi ENE 6.9 mph - N/A   Overcast
2:16 AM 30.2 °F 25.4 °F 24.8 °F 80% 29.80 in 10.0 mi SE 4.6 mph - N/A   Overcast
2:36 AM 32.0 °F - 23.0 °F 69% 29.81 in 10.0 mi Calm Calm - N/A   Overcast
2:56 AM 33.8 °F 29.6 °F 24.8 °F 70% 29.81 in 10.0 mi NNE 4.6 mph - N/A   Overcast
3:16 AM 33.8 °F 29.6 °F 21.2 °F 60% 29.81 in 10.0 mi ESE 4.6 mph - N/A   Overcast
3:36 AM 33.8 °F - 23.0 °F 65% 29.81 in 10.0 mi Calm Calm - N/A   Overcast
3:56 AM 33.8 °F - 23.0 °F 65% 29.82 in 10.0 mi Calm Calm - N/A   Overcast
4:16 AM 33.8 °F - 24.8 °F 70% 29.82 in 10.0 mi Calm Calm - N/A   Overcast
4:36 AM 32.0 °F - 23.0 °F 69% 29.82 in 10.0 mi Calm Calm - N/A   Overcast
4:56 AM 30.2 °F 26.7 °F 24.8 °F 80% 29.82 in 10.0 mi WNW 3.5 mph - N/A   Overcast
5:16 AM 30.2 °F - 24.8 °F 80% 29.82 in 10.0 mi Calm Calm - N/A   Overcast
5:36 AM 30.2 °F - 24.8 °F 80% 29.82 in 10.0 mi Calm Calm - N/A   Overcast
5:56 AM 30.2 °F - 24.8 °F 80% 29.83 in 10.0 mi Calm Calm - N/A   Overcast
6:16 AM 32.0 °F - 23.0 °F 69% 29.83 in 10.0 mi Calm Calm - N/A   Mostly Cloudy
6:36 AM 30.2 °F - 23.0 °F 75% 29.83 in 10.0 mi Calm Calm - N/A   Mostly Cloudy
6:56 AM 30.2 °F 25.4 °F 26.6 °F 86% 29.83 in 10.0 mi ENE 4.6 mph - N/A   Mostly Cloudy
7:16 AM 30.2 °F - 26.6 °F 86% 29.83 in 10.0 mi Calm Calm - N/A   Mostly Cloudy
7:36 AM 30.2 °F - 24.8 °F 80% 29.84 in 10.0 mi Calm Calm - N/A   Mostly Cloudy
7:56 AM 30.2 °F 24.3 °F 24.8 °F 80% 29.84 in 10.0 mi East 5.8 mph - N/A   Overcast
8:16 AM 30.2 °F 25.4 °F 24.8 °F 80% 29.85 in 10.0 mi East 4.6 mph - N/A   Overcast
8:36 AM 30.2 °F 26.7 °F 26.6 °F 86% 29.85 in 10.0 mi NE 3.5 mph - N/A   Overcast
8:56 AM 30.2 °F - 24.8 °F 80% 29.85 in 10.0 mi Calm Calm - N/A   Overcast
9:16 AM 30.2 °F 26.7 °F 26.6 °F 86% 29.86 in 10.0 mi ENE 3.5 mph - N/A   Overcast
9:36 AM 30.2 °F - 26.6 °F 86% 29.86 in 10.0 mi Calm Calm - N/A   Overcast
9:56 AM 30.2 °F 26.7 °F 26.6 °F 86% 29.87 in 10.0 mi ENE 3.5 mph - N/A   Overcast
10:16 AM 30.2 °F - 26.6 °F 86% 29.88 in 10.0 mi Calm Calm - N/A   Overcast
10:36 AM 32.0 °F - 28.4 °F 87% 29.89 in 10.0 mi Calm Calm - N/A   Overcast
10:56 AM 32.0 °F - 28.4 °F 87% 29.89 in 7.0 mi Calm Calm - N/A   Overcast
11:16 AM 32.0 °F - 26.6 °F 80% 29.90 in 7.0 mi Calm Calm - N/A   Overcast
11:36 AM 32.0 °F - 26.6 °F 80% 29.90 in 7.0 mi Calm Calm - N/A   Overcast
11:56 AM 32.0 °F 28.7 °F 28.4 °F 87% 29.91 in 3.0 mi North 3.5 mph - N/A   Overcast
12:06 PM 32.0 °F - 28.4 °F 87% 29.91 in 0.5 mi Calm Calm - N/A Snow Snow
12:16 PM 32.0 °F - 28.4 °F 87% 29.91 in 0.5 mi Calm Calm - N/A   Overcast
12:22 PM 32.0 °F - 26.6 °F 80% 29.91 in 3.0 mi Calm Calm - N/A Snow Light Snow
12:36 PM 32.0 °F - 28.4 °F 87% 29.90 in 3.0 mi Calm Calm - 0.01 in   Overcast
12:56 PM 30.2 °F - 28.4 °F 93% 29.90 in 3.0 mi Calm Calm - 0.01 in   Overcast
1:08 PM 30.2 °F - 28.4 °F 93% 29.91 in 1.5 mi Calm Calm - N/A Snow Light Snow
1:16 PM 30.2 °F - 28.4 °F 93% 29.91 in 1.5 mi Calm Calm - 0.01 in   Overcast
1:33 PM 30.2 °F - 30.2 °F 100% 29.91 in 3.0 mi Calm Calm - N/A Snow Light Snow
1:36 PM 30.2 °F - 30.2 °F 100% 29.91 in 3.0 mi Calm Calm - 0.01 in   Overcast
1:56 PM 30.2 °F - 28.4 °F 93% 29.91 in 7.0 mi Calm Calm - 0.02 in   Overcast
2:16 PM 32.0 °F - 30.2 °F 93% 29.91 in 7.0 mi Calm Calm - N/A   Overcast
2:36 PM 32.0 °F - 28.4 °F 87% 29.91 in 7.0 mi Calm Calm - N/A   Overcast
2:56 PM 32.0 °F - 28.4 °F 87% 29.91 in 1.0 mi Calm Calm - 0.01 in   Overcast
3:11 PM 32.0 °F 28.7 °F 28.4 °F 87% 29.91 in 5.0 mi NE 3.5 mph - N/A Snow Light Snow
3:16 PM 32.0 °F - 28.4 °F 87% 29.91 in 5.0 mi Calm Calm - N/A   Overcast
3:36 PM 32.0 °F 27.5 °F 28.4 °F 87% 29.91 in 5.0 mi East 4.6 mph - 0.01 in   Overcast
3:56 PM 32.0 °F - 30.2 °F 93% 29.91 in 10.0 mi Calm Calm - 0.01 in   Overcast
4:16 PM 32.0 °F - 28.4 °F 87% 29.91 in 10.0 mi Calm Calm - N/A   Overcast
4:36 PM 32.0 °F 27.5 °F 28.4 °F 87% 29.91 in 10.0 mi South 4.6 mph - N/A   Overcast
4:56 PM 32.0 °F - 30.2 °F 93% 29.91 in 5.0 mi Calm Calm - 0.01 in   Overcast
5:16 PM 32.0 °F - 28.4 °F 87% 29.91 in 5.0 mi Calm Calm - N/A   Overcast
5:36 PM 32.0 °F - 30.2 °F 93% 29.91 in 5.0 mi Calm Calm - 0.01 in   Overcast
5:56 PM 32.0 °F - 28.4 °F 87% 29.91 in 5.0 mi Calm Calm - 0.03 in   Overcast
6:16 PM 32.0 °F - 30.2 °F 93% 29.91 in 5.0 mi Calm Calm - N/A   Overcast
6:36 PM 33.8 °F - 28.4 °F 81% 29.91 in 5.0 mi Calm Calm - 0.01 in   Overcast
6:56 PM 32.0 °F - 28.4 °F 87% 29.92 in 7.0 mi Calm Calm - 0.01 in   Overcast
7:16 PM 32.0 °F - 30.2 °F 93% 29.92 in 7.0 mi Calm Calm - N/A   Overcast
7:36 PM 32.0 °F - 30.2 °F 93% 29.92 in 7.0 mi Calm Calm - N/A   Overcast
7:56 PM 32.0 °F - 30.2 °F 93% 29.92 in 7.0 mi Calm Calm - N/A   Overcast
8:16 PM 32.0 °F - 30.2 °F 93% 29.92 in 9.0 mi Calm Calm - N/A   Overcast
8:36 PM 30.2 °F - 28.4 °F 93% 29.92 in 8.0 mi Calm Calm - N/A   Overcast
8:56 PM 32.0 °F - 28.4 °F 87% 29.92 in 7.0 mi Calm Calm - N/A   Overcast
9:16 PM 32.0 °F - 28.4 °F 87% 29.92 in 7.0 mi Calm Calm - N/A   Overcast
9:36 PM 32.0 °F - 30.2 °F 93% 29.92 in 7.0 mi Calm Calm - N/A   Overcast
9:56 PM 32.0 °F - 30.2 °F 93% 29.92 in 5.0 mi Calm Calm - 0.01 in   Overcast
10:16 PM 32.0 °F - 30.2 °F 93% 29.92 in 4.0 mi Calm Calm - N/A   Overcast
10:36 PM 32.0 °F - 30.2 °F 93% 29.92 in 3.0 mi Calm Calm - N/A   Overcast
10:56 PM 32.0 °F - 30.2 °F 93% 29.92 in 4.0 mi Calm Calm - N/A   Mostly Cloudy
11:16 PM 32.0 °F - 30.2 °F 93% 29.92 in 5.0 mi Calm Calm - N/A   Overcast
11:36 PM 32.0 °F - 30.2 °F 93% 29.92 in 5.0 mi Calm Calm - N/A   Overcast
11:56 PM 30.2 °F - 30.2 °F 100% 29.92 in 7.0 mi Calm Calm - N/A   Overcast